Dublin, Ireland

10:06 AM IST on May 23, 2017 (GMT +0100)
Dublin International

Weather History for EIDW - September, 2014

Change the Weather History Date:

Thursday, September 25, 2014

  Actual Average Record
Temperature  
Mean Temperature 54 °F -  
Max Temperature 64 °F 58 °F 66 °F (2004)
Min Temperature 45 °F 46 °F 37 °F (2010)
Degree Days  
Heating Degree Days 10    
Growing Degree Days 4 (Base 50)    
Moisture  
Dew Point 56 °F    
Average Humidity 86    
Maximum Humidity 94    
Minimum Humidity 73    
Precipitation  
Precipitation 0.00 in 0.09 in - ()
Sea Level Pressure  
Sea Level Pressure 30.03 in    
Wind  
Wind Speed 12 mph ()    
Max Wind Speed 18 mph    
Max Gust Speed -    
Visibility 8.6 miles    
Events Rain    
Averages and records for this station are not official NWS values.
T = Trace of Precipitation, MM = Missing Value Source: Averaged Metar Reports

Daily Weather History Graph

Daily Weather History Graph

Search for Another Location

Airport or City:

Trip Planner

Search our weather history database for the weather conditions in past years. The results will help you decide how hot, cold, wet, or windy it might be!

Date:

Astronomy

Sep. 25, 2014 Rise Set
Actual Time 7:15 AM IST 7:16 PM IST
Civil Twilight 6:40 AM IST 7:51 PM IST
Nautical Twilight 5:59 AM IST 8:32 PM IST
Astronomical Twilight 5:16 AM IST 9:14 PM IST
Moon 8:32 AM IST (9/25) 7:37 PM IST (9/25)
Length of Visible Light 13h 10m
Length of Day
12h 00m
New Moon, 1% of the Moon is Illuminated
Sep 25
New Moon
Oct 1
First Quarter
Oct 8
Full
Oct 15
Last Quarter
Oct 23
New

Hourly Weather History & Observations

Time (IST) Temp. Dew Point Humidity Pressure Visibility Wind Dir Wind Speed Gust Speed Precip Events Conditions
12:00 AM 53 °F 49 °F 82% 30.06 in 19 mi WSW 11.2 mph - -   Scattered Clouds
12:00 AM 53.6 °F 50.0 °F 88% 30.04 in - WSW 11.5 mph - N/A   Clear
12:30 AM 53.6 °F 48.2 °F 82% 30.04 in - WSW 12.7 mph - N/A   Clear
1:00 AM 54 °F 49 °F 79% 30.05 in 19 mi WSW 11.2 mph - -   Scattered Clouds
1:00 AM 53.6 °F 50.0 °F 88% 30.04 in 6.2 mi WSW 11.5 mph - N/A   Mostly Cloudy
1:30 AM 53.6 °F 50.0 °F 88% 30.04 in 6.2 mi WSW 9.2 mph - N/A   Mostly Cloudy
2:00 AM 54 °F 50 °F 81% 30.05 in 19 mi SW 8.9 mph - -   Partly Cloudy
2:00 AM 53.6 °F 50.0 °F 88% 30.04 in 6.2 mi SW 9.2 mph - N/A   Mostly Cloudy
2:30 AM 53.6 °F 50.0 °F 88% 30.04 in 6.2 mi WSW 9.2 mph - N/A   Mostly Cloudy
3:00 AM 55 °F 50 °F 79% 30.05 in 19 mi SW 8.9 mph - -   Partly Cloudy
3:00 AM 53.6 °F 50.0 °F 88% 30.04 in 6.2 mi SW 8.1 mph - N/A   Mostly Cloudy
3:30 AM 55.4 °F 51.8 °F 88% 30.04 in 6.2 mi WSW 8.1 mph - N/A   Mostly Cloudy
4:00 AM 56 °F 52 °F 80% 30.03 in 19 mi SW 11.2 mph - -   Scattered Clouds
4:00 AM 55.4 °F 51.8 °F 88% 30.01 in 6.2 mi SW 10.4 mph - N/A   Mostly Cloudy
4:30 AM 55.4 °F 51.8 °F 88% 30.01 in 6.2 mi SW 10.4 mph - N/A   Mostly Cloudy
5:00 AM 56 °F 53 °F 84% 30.01 in 19 mi WSW 15.7 mph - -   Overcast
5:00 AM 57.2 °F 51.8 °F 82% 30.01 in 6.2 mi WSW 15.0 mph - N/A   Mostly Cloudy
5:30 AM 57.2 °F 53.6 °F 88% 30.01 in 6.2 mi WSW 13.8 mph - N/A   Mostly Cloudy
6:00 AM 57 °F 53 °F 83% 30.00 in 19 mi WSW 13.4 mph - -   Overcast
6:00 AM 57.2 °F 53.6 °F 88% 29.98 in 6.2 mi WSW 15.0 mph - N/A   Mostly Cloudy
6:30 AM 57.2 °F 53.6 °F 88% 29.98 in 6.2 mi WSW 15.0 mph - N/A   Mostly Cloudy
7:00 AM 57 °F 54 °F 85% 30.01 in 19 mi WSW 13.4 mph - -   Mostly Cloudy
7:00 AM 57.2 °F 53.6 °F 88% 30.01 in 6.2 mi WSW 13.8 mph - N/A   Mostly Cloudy
7:30 AM 57.2 °F 53.6 °F 88% 30.01 in 6.2 mi WSW 13.8 mph - N/A   Mostly Cloudy
8:00 AM 57 °F 55 °F 90% 30.01 in 6 mi WSW 15.7 mph - - Rain Light Drizzle
8:00 AM 57.2 °F 55.4 °F 94% 30.01 in 5.6 mi WSW 15.0 mph - N/A   Light Drizzle
8:30 AM 57.2 °F 55.4 °F 94% 30.01 in 6.2 mi WSW 16.1 mph - N/A   Light Drizzle
9:00 AM 58 °F 56 °F 90% 30.01 in 6 mi WSW 17.9 mph - - Rain Light Drizzle
9:00 AM 57.2 °F 55.4 °F 94% 30.01 in 6.2 mi WSW 17.3 mph - N/A   Light Drizzle
9:30 AM 59.0 °F 57.2 °F 94% 30.01 in 6.2 mi WSW 18.4 mph - N/A   Mostly Cloudy
10:00 AM 59 °F 56 °F 88% 30.01 in 12 mi WSW 17.9 mph - -   Partly Cloudy
10:00 AM 59.0 °F 57.2 °F 94% 30.01 in 6.2 mi WSW 17.3 mph - N/A   Mostly Cloudy
10:30 AM 59.0 °F 57.2 °F 94% 30.01 in 5.6 mi WSW 18.4 mph - N/A   Mostly Cloudy
11:00 AM 59 °F 58 °F 94% 30.03 in 6 mi WSW 15.7 mph - - Rain Light Drizzle
11:00 AM 59.0 °F 57.2 °F 94% 30.01 in 5.6 mi WSW 16.1 mph - N/A   Light Drizzle
11:30 AM 60.8 °F 59.0 °F 94% 30.01 in 6.2 mi WSW 12.7 mph - N/A   Mostly Cloudy
12:00 PM 62 °F 58 °F 84% 30.04 in 11 mi West 13.4 mph - - Rain Light Drizzle
12:00 PM 62.6 °F 59.0 °F 88% 30.04 in 6.2 mi West 12.7 mph - N/A   Mostly Cloudy
12:30 PM 64.4 °F 59.0 °F 83% 30.01 in 6.2 mi West 13.8 mph - N/A   Mostly Cloudy
1:00 PM 64 °F 58 °F 76% 30.04 in 16 mi West 15.7 mph - -   Partly Cloudy
1:00 PM 64.4 °F 59.0 °F 83% 30.04 in 6.2 mi West 15.0 mph - N/A   Mostly Cloudy
1:30 PM 64.4 °F 59.0 °F 83% 30.04 in 6.2 mi West 16.1 mph - N/A   Mostly Cloudy
2:00 PM 64 °F 59 °F 77% 30.04 in 31 mi West 15.7 mph - - Rain Light Drizzle
2:00 PM 64.4 °F 59.0 °F 83% 30.04 in 6.2 mi West 15.0 mph - N/A   Overcast
2:30 PM 64.4 °F 59.0 °F 83% 30.04 in 6.2 mi West 16.1 mph - N/A   Overcast
3:00 PM 65 °F 58 °F 73% 30.03 in 31 mi WSW 15.7 mph - -   Mostly Cloudy
3:00 PM 64.4 °F 59.0 °F 83% 30.01 in 6.2 mi WSW 16.1 mph - N/A   Mostly Cloudy
3:30 PM 64.4 °F 59.0 °F 83% 30.01 in 6.2 mi WSW 15.0 mph - N/A   Mostly Cloudy
4:00 PM 64 °F 59 °F 79% 30.02 in 19 mi WSW 13.4 mph - - Rain Light Drizzle
4:00 PM 64.4 °F 59.0 °F 83% 30.01 in 6.2 mi WSW 13.8 mph - N/A   Overcast
4:30 PM 64.4 °F 59.0 °F 83% 30.01 in 6.2 mi WSW 16.1 mph - N/A   Mostly Cloudy
5:00 PM 64 °F 59 °F 79% 30.02 in 12 mi WSW 13.4 mph - - Rain Light Drizzle
5:00 PM 64.4 °F 59.0 °F 83% 30.01 in 6.2 mi WSW 12.7 mph - N/A   Light Drizzle
5:30 PM 62.6 °F 60.8 °F 94% 30.01 in 3.7 mi WSW 16.1 mph - N/A   Light Drizzle
6:00 PM 62 °F 60 °F 92% 30.03 in 4 mi SW 11.2 mph - - Rain Light Drizzle
6:00 PM 62.6 °F 60.8 °F 94% 30.01 in 3.7 mi WSW 12.7 mph - N/A   Light Drizzle
6:30 PM 62.6 °F 59.0 °F 88% 30.01 in 6.2 mi WSW 11.5 mph - N/A   Mostly Cloudy
7:00 PM 63 °F 58 °F 80% 30.04 in 25 mi WSW 8.9 mph - -   Partly Cloudy
7:00 PM 62.6 °F 59.0 °F 88% 30.04 in 6.2 mi WSW 10.4 mph - N/A   Mostly Cloudy
7:30 PM 62.6 °F 59.0 °F 88% 30.04 in 6.2 mi SW 8.1 mph - N/A   Mostly Cloudy
8:00 PM 62 °F 58 °F 83% 30.04 in 19 mi West 8.9 mph - -   Mostly Cloudy
8:00 PM 62.6 °F 59.0 °F 88% 30.04 in 6.2 mi West 9.2 mph - N/A   Mostly Cloudy
8:30 PM 60.8 °F 57.2 °F 88% 30.04 in 6.2 mi West 11.5 mph - N/A   Mostly Cloudy
9:00 PM 60 °F 56 °F 83% 30.05 in 19 mi WSW 8.9 mph - -   Mostly Cloudy
9:00 PM 60.8 °F 55.4 °F 82% 30.04 in 6.2 mi WSW 9.2 mph - N/A   Mostly Cloudy
9:30 PM 59.0 °F 55.4 °F 88% 30.04 in 6.2 mi WSW 9.2 mph - N/A   Scattered Clouds
10:00 PM 59 °F 56 °F 85% 30.05 in 25 mi SW 8.9 mph - -   Mostly Cloudy
10:00 PM 59.0 °F 55.4 °F 88% 30.04 in 6.2 mi SW 9.2 mph - N/A   Mostly Cloudy
10:30 PM 59.0 °F 55.4 °F 88% 30.04 in 6.2 mi WSW 13.8 mph - N/A   Mostly Cloudy
11:00 PM 59 °F 55 °F 84% 30.05 in 25 mi WSW 17.9 mph - -   Mostly Cloudy
11:00 PM 59.0 °F 55.4 °F 88% 30.04 in 6.2 mi West 17.3 mph - N/A   Mostly Cloudy
11:30 PM 59.0 °F 53.6 °F 82% 30.04 in 6.2 mi WSW 12.7 mph - N/A   Mostly Cloudy